Regional Weather Roundup
Issued by NWS Sioux Falls, SD

Home | Current Version | Previous Version | Graphics & Text | Print | Product List | Glossary On
Versions: 1 2 3 4 5 6 7 8 9 10 11 12 13 14 15 16 17 18 19 20 21 22 23 24 25 26 27 28 29 30 31 32 33 34 35 36 37 38 39 40 41 42 43 44 45 46 47 48 49 50
000
ASUS43 KFSD 212310
RWRFSD

WEATHER ROUNDUP FOR SE SOUTH DAKOTA/SW MINNESOTA/NW IOWA
NATIONAL WEATHER SERVICE SIOUX FALLS SD
600 PM CDT SAT APR 21 2018

NOTE: "FAIR" INDICATES FEW OR NO CLOUDS BELOW 12,000 FEET WITH NO
SIGNIFICANT WEATHER AND OR OBSTRUCTIONS TO VISIBILITY.


SDZ038>040-050-052>070-220000-
SOUTHEAST SOUTH DAKOTA

CITY           SKY/WX    TMP DP  RH WIND       PRES   REMARKS
BROOKINGS      CLOUDY    49  33  54 SE9       30.30F
CHAMBERLAIN    CLOUDY    50  42  72 E5        30.26S
HURON          CLOUDY    53  35  50 SE13      30.28F
MADISON        FAIR      46  45  93 E8        30.29F
MITCHELL       CLOUDY    47  37  68 E6        30.29S
SIOUX FALLS    CLOUDY    51  34  52 E15       30.28F
WINNER         CLOUDY    48  37  65 E7        30.25F
YANKTON        PTSUNNY   53  32  44 E8        30.27S
$$

MNZ071-072-080-081-089-090-097-098-220000-
SOUTHWEST MINNESOTA

CITY           SKY/WX    TMP DP  RH WIND       PRES   REMARKS
FAIRMONT       CLOUDY    45  34  65 NE5       30.33F
JACKSON        CLOUDY    39  34  81 NE7       30.32F
LUVERNE        CLOUDY    46  37  71 NE6       30.31S
MARSHALL       CLOUDY    45  30  55 SE5       30.33S
MONTEVIDEO     SUNNY     54  36  50 SW9       30.33S
PIPESTONE      CLOUDY   N/A N/A N/A SE8       30.30F
REDWOOD FALLS  CLOUDY    48  36  63 S3        30.33S
TRACY          CLOUDY    45  33  63 SE6       30.33S
WINDOM         CLOUDY    45  27  49 NE5       30.32F
WORTHINGTON    CLOUDY    45  36  70 NE6       30.31F
$$

IAZ001>003-012>014-020>022-031-032-NEZ013-014-SDZ071-220000-
NORTHWEST IOWA

CITY           SKY/WX    TMP DP  RH WIND       PRES   REMARKS
CHEROKEE       CLOUDY    50  39  65 E8        30.29R
DENISON        CLOUDY    54  27  35 E7        30.28R
ESTHERVILLE    CLOUDY    41  33  73 NE10      30.30F
LE MARS        CLOUDY    54  36  50 E9        30.28R
ORANGE CITY    CLOUDY    54  37  54 E8        30.29R
SHELDON        CLOUDY    50  37  62 E14       30.28S
SIOUX CITY     CLOUDY    55  28  35 E10       30.26R
SPENCER        CLOUDY    45  35  68 NE12      30.30S
STORM LAKE     MOSUNNY   50  41  71 NE10      30.28R
$$

ABBREVIATIONS USED IN REMARKS
   TC - TEMPERATURE IN CELSIUS
  WCI - WIND CHILL INDEX
   HX - HEAT INDEX
  VSB - VISIBILITY





USA.gov is the U.S. government's official web portal to all federal, state and local government web resources and services.